Voltar ao catálogo

SL-12 DEB

LostHEO
NORAD 43377·DEBRIS·🇷🇺 Russia

Lançado Oct 26, 2007 de Baikonur Cosmodrome

Loading…

Próximas Passagens (próximas 24 horas)

TLE

ObsoletoSource: Space-Track

Época: Feb 18, 2021, 11:19 UTC

1 43377U 07052AD  21049.47174655  .00002133  00000-0  77684-3 0  9997
2 43377  64.3064 221.7184 5806457 351.6368   1.7658  4.29536563 77522

Acompanhe SL-12 DEB em tempo real com AllMySat

Download on the App Store